Westhampton Beach, NY

8:20 AM EDT on June 22, 2018 (GMT -0400)
The Gabreski

Weather History for KFOK - November, 2017

Change the Weather History Date:

Wednesday, November 15, 2017

  Actual Average Record
Temperature  
Mean Temperature 42 °F -  
Max Temperature 48 °F 50 °F 66 °F (2011)
Min Temperature 37 °F 31 °F 19 °F (2014)
Degree Days  
Heating Degree Days 22    
Moisture  
Dew Point 33 °F    
Average Humidity 68    
Maximum Humidity 82    
Minimum Humidity 50    
Precipitation  
Precipitation 0.00 in - - ()
Sea Level Pressure  
Sea Level Pressure 30.23 in    
Wind  
Wind Speed 6 mph (ENE)    
Max Wind Speed 13 mph    
Max Gust Speed 17 mph    
Visibility 10 miles    
Events      
Averages and records for this station are not official NWS values.
T = Trace of Precipitation, MM = Missing Value Source: NWS Daily Summary

Daily Weather History Graph

Daily Weather History Graph

Search for Another Location

Airport or City:

Astronomy

Nov. 15, 2017 Rise Set
Actual Time 6:37 AM EST 4:31 PM EST
Civil Twilight 6:08 AM EST 5:01 PM EST
Nautical Twilight 5:35 AM EST 5:34 PM EST
Astronomical Twilight 5:02 AM EST 6:07 PM EST
Moon 3:34 AM EST (11/15) 3:27 PM EST (11/15)
Length of Visible Light 10h 53m
Length of Day
9h 54m
Waning Crescent, 7% of the Moon is Illuminated
Nov 15
Waning Crescent
Nov 18
New
Nov 26
First Quarter
Dec 3
Full
Dec 10
Last Quarter

Hourly Weather History & Observations

Time (EST) Temp. Windchill Dew Point Humidity Pressure Visibility Wind Dir Wind Speed Gust Speed Precip Events Conditions
12:53 AM 39.9 °F 35.8 °F 32.0 °F 73% 30.30 in 10.0 mi NNE 5.8 mph - N/A   Overcast
1:53 AM 37.0 °F - 32.0 °F 82% 30.30 in 10.0 mi Calm Calm - N/A   Overcast
2:53 AM 39.9 °F 37.8 °F 34.0 °F 79% 30.29 in 10.0 mi North 3.5 mph - N/A   Overcast
3:53 AM 41.0 °F 37.1 °F 33.1 °F 73% 30.29 in 10.0 mi North 5.8 mph - N/A   Overcast
4:53 AM 39.9 °F 34.5 °F 33.1 °F 77% 30.30 in 10.0 mi North 8.1 mph - N/A   Overcast
5:53 AM 39.9 °F 37.8 °F 33.1 °F 77% 30.30 in 10.0 mi North 3.5 mph - N/A   Overcast
6:53 AM 37.9 °F 32.7 °F 32.0 °F 79% 30.30 in 10.0 mi North 6.9 mph - N/A   Mostly Cloudy
7:53 AM 43.0 °F 39.5 °F 36.0 °F 76% 30.31 in 10.0 mi Variable 5.8 mph - N/A   Overcast
8:53 AM 44.1 °F 37.7 °F 34.0 °F 68% 30.32 in 10.0 mi NE 12.7 mph - N/A   Mostly Cloudy
9:53 AM 45.0 °F 39.7 °F 34.0 °F 65% 30.32 in 10.0 mi NE 10.4 mph - N/A   Mostly Cloudy
10:53 AM 46.9 °F - 35.1 °F 63% 30.28 in 10.0 mi ENE 6.9 mph - N/A   Mostly Cloudy
11:53 AM 48.9 °F - 32.0 °F 52% 30.25 in 10.0 mi SE 10.4 mph - N/A   Mostly Cloudy
12:53 PM 48.0 °F - 30.9 °F 52% 30.23 in 10.0 mi East 10.4 mph 17.3 mph N/A   Overcast
1:53 PM 48.9 °F - 30.9 °F 50% 30.20 in 10.0 mi NE 8.1 mph - N/A   Overcast
2:53 PM 46.9 °F - 30.9 °F 54% 30.21 in 10.0 mi East 4.6 mph - N/A   Overcast
3:53 PM 46.0 °F 43.1 °F 32.0 °F 58% 30.20 in 10.0 mi East 5.8 mph - N/A   Overcast
4:53 PM 44.1 °F 41.5 °F 33.1 °F 65% 30.20 in 10.0 mi NE 4.6 mph - N/A   Overcast
5:53 PM 43.0 °F 39.5 °F 34.0 °F 71% 30.19 in 10.0 mi ENE 5.8 mph - N/A   Overcast
6:53 PM 44.1 °F 42.5 °F 34.0 °F 68% 30.18 in 10.0 mi East 3.5 mph - N/A   Overcast
7:53 PM 45.0 °F 42.6 °F 35.1 °F 68% 30.17 in 10.0 mi East 4.6 mph - N/A   Overcast
8:53 PM 43.0 °F 41.3 °F 35.1 °F 74% 30.14 in 10.0 mi ENE 3.5 mph - N/A   Overcast
9:53 PM 41.0 °F 39.0 °F 34.0 °F 76% 30.12 in 10.0 mi ESE 3.5 mph - N/A   Scattered Clouds
10:53 PM 44.1 °F 42.5 °F 37.0 °F 76% 30.11 in 10.0 mi East 3.5 mph - N/A   Overcast
11:53 PM 46.9 °F - 36.0 °F 66% 30.10 in 10.0 mi ESE 4.6 mph - N/A   Overcast